• In Lithuania
  • List of Countries
  • For 7 days
  • Water Temperature
  • Satellite Maps
  • Weather Map
  • Weather Widgets
  • user-avatar
    Login

    Hourly Weather Ioannina

    Today, 26 September, Wednesday

    Time Temperature Precipitation Wind Pressure Humidity
    00:00 +10°C° 0 mm 3 mps 692 mmHg 44%
    01:00 +9°C° 0 mm 3 mps 692 mmHg 45%
    02:00 +9°C° 0 mm 3 mps 692 mmHg 46%
    03:00 +8°C° 0 mm 3 mps 692 mmHg 46%
    04:00 +8°C° 0 mm 3 mps 692 mmHg 47%
    05:00 +8°C° 0 mm 3 mps 692 mmHg 47%
    06:00 +8°C° 0 mm 3 mps 692 mmHg 47%
    07:00 +8°C° 0 mm 3 mps 693 mmHg 46%
    08:00 +9°C° 0 mm 3 mps 693 mmHg 47%
    09:00 +10°C° 0 mm 3 mps 693 mmHg 48%
    10:00 +11°C° 0 mm 3 mps 693 mmHg 48%
    11:00 +11°C° 0 mm 3 mps 693 mmHg 47%
    12:00 +12°C° 0 mm 3 mps 693 mmHg 46%
    13:00 +12°C° 0 mm 3 mps 693 mmHg 45%
    14:00 +12°C° 0 mm 4 mps 693 mmHg 45%
    15:00 +12°C° 0 mm 4 mps 693 mmHg 45%
    16:00 +12°C° 0 mm 4 mps 692 mmHg 45%
    17:00 +10°C° 0 mm 3 mps 692 mmHg 48%
    18:00 +9°C° 0 mm 3 mps 693 mmHg 52%
    19:00 +7°C° 0 mm 3 mps 693 mmHg 56%
    20:00 +7°C° 0 mm 3 mps 693 mmHg 56%
    21:00 +5°C° 0 mm 3 mps 693 mmHg 55%
    22:00 +5°C° 0 mm 3 mps 693 mmHg 55%
    23:00 +5°C° 0 mm 3 mps 693 mmHg 54%

    Tomorrow, 27 September, Thursday

    Time Temperature Precipitation Wind Pressure Humidity
    00:00 +4°C° 0 mm 3 mps 693 mmHg 54%
    01:00 +4°C° 0 mm 3 mps 693 mmHg 53%
    02:00 +3°C° 0 mm 3 mps 693 mmHg 55%
    03:00 +3°C° 0 mm 3 mps 692 mmHg 56%
    04:00 +3°C° 0 mm 3 mps 692 mmHg 58%
    05:00 +3°C° 0 mm 3 mps 692 mmHg 54%
    06:00 +4°C° 0 mm 3 mps 692 mmHg 51%
    07:00 +5°C° 0 mm 4 mps 692 mmHg 48%
    08:00 +7°C° 0 mm 4 mps 693 mmHg 40%
    09:00 +11°C° 0 mm 4 mps 693 mmHg 33%
    10:00 +13°C° 0 mm 4 mps 693 mmHg 26%
    11:00 +14°C° 0 mm 4 mps 693 mmHg 26%
    12:00 +14°C° 0 mm 4 mps 693 mmHg 26%
    13:00 +15°C° 0 mm 4 mps 692 mmHg 26%
    14:00 +15°C° 0 mm 4 mps 692 mmHg 29%
    15:00 +14°C° 0 mm 3 mps 692 mmHg 32%
    16:00 +14°C° 0 mm 3 mps 691 mmHg 34%
    17:00 +12°C° 0 mm 3 mps 691 mmHg 37%
    18:00 +11°C° 0 mm 3 mps 691 mmHg 41%
    19:00 +10°C° 0 mm 2 mps 690 mmHg 44%
    20:00 +10°C° 0.1 mm 2 mps 690 mmHg 43%
    21:00 +10°C° 0.1 mm 3 mps 690 mmHg 43%
    22:00 +10°C° 0.1 mm 3 mps 690 mmHg 43%
    23:00 +9°C° 0.1 mm 3 mps 690 mmHg 43%

    Day after tomorrow, 28 September, Friday

    Time Temperature Precipitation Wind Pressure Humidity
    00:00 +9°C° 0.1 mm 3 mps 689 mmHg 43%
    01:00 +9°C° 0.1 mm 3 mps 689 mmHg 44%
    02:00 +9°C° 0 mm 3 mps 689 mmHg 44%
    03:00 +9°C° 0 mm 3 mps 688 mmHg 43%
    04:00 +9°C° 0 mm 3 mps 688 mmHg 43%
    05:00 +9°C° 0 mm 3 mps 688 mmHg 44%
    06:00 +10°C° 0 mm 3 mps 687 mmHg 45%
    07:00 +10°C° 0 mm 3 mps 687 mmHg 45%
    08:00 +12°C° 0 mm 3 mps 687 mmHg 43%
    09:00 +14°C° 0 mm 3 mps 688 mmHg 41%
    10:00 +17°C° 0 mm 3 mps 688 mmHg 39%
    11:00 +18°C° 0 mm 3 mps 688 mmHg 38%
    12:00 +19°C° 0 mm 3 mps 688 mmHg 38%
    13:00 +20°C° 0 mm 2 mps 687 mmHg 37%
    14:00 +20°C° 0 mm 2 mps 687 mmHg 39%
    15:00 +19°C° 0 mm 2 mps 687 mmHg 41%
    16:00 +19°C° 0 mm 2 mps 686 mmHg 43%
    17:00 +17°C° 0 mm 2 mps 686 mmHg 48%
    18:00 +16°C° 0 mm 2 mps 686 mmHg 53%
    19:00 +14°C° 0 mm 2 mps 686 mmHg 58%
    20:00 +14°C° 0 mm 2 mps 686 mmHg 60%
    21:00 +13°C° 0 mm 2 mps 685 mmHg 62%
    22:00 +13°C° 0 mm 2 mps 685 mmHg 64%
    23:00 +13°C° 0.2 mm 2 mps 685 mmHg 66%

    29 September, Saturday

    Time Temperature Precipitation Wind Pressure Humidity
    00:00 +12°C° 0.2 mm 2 mps 685 mmHg 68%
    01:00 +12°C° 0.2 mm 2 mps 685 mmHg 70%
    02:00 +12°C° 0.3 mm 2 mps 684 mmHg 71%
    03:00 +12°C° 0.3 mm 2 mps 684 mmHg 72%
    04:00 +12°C° 0.3 mm 2 mps 684 mmHg 74%
    05:00 +12°C° 0.1 mm 2 mps 684 mmHg 72%
    06:00 +13°C° 0.1 mm 2 mps 684 mmHg 70%
    07:00 +13°C° 0.1 mm 2 mps 684 mmHg 68%
    08:00 +15°C° 0 mm 2 mps 684 mmHg 65%
    09:00 +16°C° 0 mm 2 mps 684 mmHg 62%
    10:00 +17°C° 0 mm 2 mps 684 mmHg 59%
    11:00 +19°C° 0 mm 2 mps 684 mmHg 56%
    12:00 +20°C° 0 mm 2 mps 684 mmHg 52%
    13:00 +21°C° 0 mm 2 mps 684 mmHg 49%
    14:00 +20°C° 0 mm 2 mps 684 mmHg 51%
    15:00 +20°C° 0 mm 2 mps 683 mmHg 54%
    16:00 +19°C° 0 mm 2 mps 683 mmHg 56%
    17:00 +18°C° 0 mm 2 mps 683 mmHg 60%
    18:00 +17°C° 0 mm 2 mps 683 mmHg 63%
    19:00 +16°C° 0 mm 2 mps 684 mmHg 67%
    20:00 +15°C° 0 mm 2 mps 684 mmHg 68%
    21:00 +15°C° 0 mm 2 mps 684 mmHg 69%
    22:00 +14°C° 0 mm 2 mps 684 mmHg 71%
    23:00 +14°C° 0.1 mm 2 mps 684 mmHg 71%

    30 September, Sunday

    Time Temperature Precipitation Wind Pressure Humidity
    00:00 +14°C° 0.1 mm 2 mps 684 mmHg 72%
    01:00 +13°C° 0.1 mm 2 mps 684 mmHg 72%
    02:00 +13°C° 0 mm 2 mps 684 mmHg 70%
    03:00 +13°C° 0 mm 2 mps 684 mmHg 69%
    04:00 +13°C° 0 mm 2 mps 684 mmHg 67%
    05:00 +13°C° 0 mm 2 mps 684 mmHg 63%
    06:00 +14°C° 0 mm 2 mps 684 mmHg 59%
    07:00 +15°C° 0 mm 2 mps 685 mmHg 55%
    08:00 +17°C° 0 mm 2 mps 685 mmHg 50%
    09:00 +19°C° 0 mm 2 mps 686 mmHg 45%
    10:00 +21°C° 0 mm 2 mps 686 mmHg 41%
    11:00 +21°C° 0 mm 2 mps 686 mmHg 41%
    12:00 +23°C° 0 mm 2 mps 686 mmHg 41%
    13:00 +23°C° 0 mm 2 mps 686 mmHg 41%
    14:00 +21°C° 0 mm 2 mps 686 mmHg 46%
    15:00 +20°C° 0 mm 2 mps 686 mmHg 51%
    16:00 +19°C° 0 mm 2 mps 686 mmHg 56%
    17:00 +18°C° 0.3 mm 1 mps 686 mmHg 62%
    18:00 +16°C° 0.3 mm 1 mps 686 mmHg 69%
    19:00 +14°C° 0.3 mm 1 mps 686 mmHg 75%
    20:00 +14°C° 0.2 mm 1 mps 686 mmHg 77%
    21:00 +13°C° 0.2 mm 1 mps 686 mmHg 79%
    22:00 +13°C° 0.2 mm 2 mps 686 mmHg 82%
    23:00 +12°C° 0.2 mm 2 mps 686 mmHg 83%

    1 October, Monday

    Time Temperature Precipitation Wind Pressure Humidity
    00:00 +12°C° 0.2 mm 2 mps 685 mmHg 84%
    01:00 +12°C° 0.2 mm 2 mps 685 mmHg 85%
    02:00 +10°C° 0.2 mm 2 mps 685 mmHg 86%
    03:00 +10°C° 0.2 mm 2 mps 685 mmHg 86%
    04:00 +10°C° 0.2 mm 2 mps 685 mmHg 87%
    05:00 +12°C° 0.3 mm 1 mps 685 mmHg 85%
    06:00 +13°C° 0.3 mm 1 mps 685 mmHg 82%
    07:00 +13°C° 0.3 mm 1 mps 685 mmHg 80%
    08:00 +15°C° 0.3 mm 2 mps 686 mmHg 72%
    09:00 +17°C° 0.3 mm 2 mps 686 mmHg 64%
    10:00 +19°C° 0.3 mm 2 mps 686 mmHg 56%
    11:00 +19°C° 0.4 mm 2 mps 686 mmHg 56%
    12:00 +19°C° 0.4 mm 2 mps 685 mmHg 56%
    13:00 +20°C° 0.4 mm 3 mps 685 mmHg 56%
    14:00 +19°C° 0.5 mm 2 mps 685 mmHg 58%
    15:00 +19°C° 0.5 mm 2 mps 685 mmHg 60%
    16:00 +18°C° 0.5 mm 2 mps 684 mmHg 62%
    17:00 +17°C° 0.3 mm 2 mps 684 mmHg 69%
    18:00 +15°C° 0.3 mm 1 mps 684 mmHg 77%
    19:00 +14°C° 0.3 mm 1 mps 684 mmHg 84%
    20:00 +13°C° 0 mm 1 mps 684 mmHg 85%
    21:00 +13°C° 0 mm 1 mps 683 mmHg 87%
    22:00 +12°C° 0 mm 1 mps 683 mmHg 88%
    23:00 +12°C° 0 mm 1 mps 683 mmHg 87%
    Show more